Location: Kerb�bon
(47.7970°N, 3.3487°W)
Time: 13:14:50
(UTC+00:00)

ALOS 2 - Pass Details

Date: 12 May 2021
Orbit: 630 x 632 km, 97.9° (Epoch: 18 June)

Event Time Altitude Azimuth Distance (km) Brightness Sun altitude
Exits shadow 23:02:15 38° 94° (E) 971 3.3 -22.1°
Maximum altitude 23:02:57 41° 69° (ENE) 921 3.4 -22.1°
Drops below altitude 10° 23:07:05 10° 360° (N) 2,026 6.2 -22.3°
Sets 23:09:23 0° 353° (N) 2,938 7.5 -22.5°
